カタログに戻る

STARLINK-32735

運用中通信VLEO
NORAD 63044·PAYLOAD·🇺🇸 United States

打ち上げ Feb 18, 2025 から Cape Canaveral Space Force Station

Loading…

次のパス (今後24時間)

TLE

最新Source: CelesTrak SupGP

元期: Sep 14, 2026, 22:56 UTC

1 63044C 25034R   26257.95604167  .00020504  00000+0  60586-3 0  2576
2 63044  53.1581 107.7725 0001340  80.7810 183.7087 15.34377732    10

AllMySatでSTARLINK-32735をリアルタイム追跡

Download on the App Store